SCP
0 -0 0 -0 0 0 0 0 0 0 0 0 0 0 0 0 0 0 0 0 0 0
0 0 0 0 0 -0 0 0 0 0 0 0 0 0 0 0 0 0 0 0 0 0
0 0 0 0 0 0 0 0 0 0 0 0 0 0 0 0 0 0 0 0 0 0
0 -0 -0 -0 0 0 0 0 0 0 0 0 0 0 0 0 0 0 0 0 0 0
-0 -0 -0 -0 0 0 0 0 0 0 0 0 0 0 0 0 -0 -0 0 0 0 0
0 0 0 0 -0 0 0 0 0 0 0 0 0 0 0 0 0 0 0 0 0 0
0 0 0 0 0 0 -0 -0 0 0 0 0 0 0 0 0 0 0 0 0 0 0
0 0 0 0 0 0 -0 -0 0 0 0 0 0 0 0 0 0 0 0 0 0 0
0 0 0 0 0 0 -0 0 0 0 0 0 0 0 0 0 0 0 0 0 0 0
0 0 0 0 0 0 0 -0 0 0 0 0 0 0 0 0 0 0 0 0 0 0
0 0 0 0 0 0 0 0 0 0 0 0 0 0 0 0 0 0 0 0 0 0
0 0 0 0 0 0 0 0 -0 0 0 0 0 0 0 0 0 0 0 0 0 0
0 0 0 0 0 0 0 0 0 0 0 0 0 0 0 0 0 0 0 0 0 0
0 0 0 0 0 0 0 0 0 0 0 0 -0 0 0 0 0 0 0 0 0 0
Wind_Speed_500mb
68 70 71 73 77 80 82 80 78 73 67 64 59 58 53 51 73 97 82 119 120 103
69 69 71 71 73 77 79 81 79 75 75 67 65 61 65 59 57 70 81 93 111 110
68 69 70 70 72 76 77 82 81 78 74 74 68 64 66 68 69 62 72 75 84 88
67 69 71 72 73 75 77 79 83 79 78 73 73 69 64 68 73 74 64 71 74 75
69 71 73 74 75 77 78 76 79 79 78 73 72 70 68 65 68 79 68 71 70 75
71 73 71 73 77 79 79 78 77 80 75 74 70 73 69 66 65 65 72 69 66 69
72 73 72 74 76 80 79 78 76 77 77 73 67 67 66 62 63 63 65 69 69 67
74 72 71 74 76 77 79 76 74 74 77 73 67 64 64 59 56 58 59 65 69 73
77 73 70 72 76 78 78 77 73 71 72 74 70 60 60 56 53 55 55 60 66 69
77 72 69 71 75 78 78 77 73 70 69 70 73 60 58 55 49 50 53 55 64 70
76 71 67 69 72 76 76 74 74 70 68 68 70 62 59 56 49 43 47 52 66 72
73 68 66 68 71 73 74 72 72 70 68 66 63 65 56 54 48 42 41 47 63 71
69 62 62 66 68 70 70 71 72 69 64 62 57 61 53 48 45 47 51 49 59 69
63 58 57 60 62 65 68 69 68 64 61 59 54 53 51 48 44 43 49 51 54 54
Wind_Direction_500mb
345 346 346 346 345 344 342 339 330 320 313 294 280 287 287 290 273 259 258 249 257 245
340 340 340 340 340 340 340 338 336 326 316 309 288 279 284 285 286 277 268 265 256 250
338 337 336 335 335 335 335 336 334 333 323 313 307 285 274 280 283 284 279 268 260 261
337 335 334 333 332 331 331 332 333 333 329 320 310 302 285 277 276 281 280 274 267 263
334 332 331 330 329 328 326 327 327 329 331 324 316 309 296 280 273 271 276 273 267 264
330 330 330 330 330 329 324 322 323 325 326 329 319 313 305 288 276 269 267 273 269 265
327 327 326 327 327 327 326 321 320 320 321 327 320 314 308 299 284 273 265 268 267 264
323 323 321 322 325 325 325 322 319 319 320 322 324 316 310 302 290 278 270 266 263 262
321 321 319 320 321 322 323 323 319 319 321 318 325 318 310 300 288 279 272 265 265 263
320 319 318 319 320 320 322 321 320 321 321 319 323 322 310 300 291 280 271 263 261 257
319 317 318 320 319 319 321 321 320 320 322 321 321 325 312 301 291 281 269 261 257 254
317 316 318 320 320 319 320 320 320 321 321 322 320 327 316 303 296 292 281 267 252 244
314 313 316 318 320 319 319 320 321 317 319 320 320 331 322 303 295 283 274 269 254 244
311 312 315 317 321 319 321 320 320 319 316 319 321 327 331 311 293 281 268 260 247 237
Wind_Speed_850mb
68 70 71 73 77 80 82 80 78 73 67 64 59 58 53 51 73 97 82 119 120 103
69 69 71 71 73 77 79 81 79 75 75 67 65 61 65 59 57 70 81 93 111 110
68 69 70 70 72 76 77 82 81 78 74 74 68 64 66 68 69 62 72 75 84 88
67 69 71 72 73 75 77 79 83 79 78 73 73 69 64 68 73 74 64 71 74 75
69 71 73 74 75 77 78 76 79 79 78 73 72 70 68 65 68 79 68 71 70 75
71 73 71 73 77 79 79 78 77 80 75 74 70 73 69 66 65 65 72 69 66 69
72 73 72 74 76 80 79 78 76 77 77 73 67 67 66 62 63 63 65 69 69 67
74 72 71 74 76 77 79 76 74 74 77 73 67 64 64 59 56 58 59 65 69 73
77 73 70 72 76 78 78 77 73 71 72 74 70 60 60 56 53 55 55 60 66 69
77 72 69 71 75 78 78 77 73 70 69 70 73 60 58 55 49 50 53 55 64 70
76 71 67 69 72 76 76 74 74 70 68 68 70 62 59 56 49 43 47 52 66 72
73 68 66 68 71 73 74 72 72 70 68 66 63 65 56 54 48 42 41 47 63 71
69 62 62 66 68 70 70 71 72 69 64 62 57 61 53 48 45 47 51 49 59 69
63 58 57 60 62 65 68 69 68 64 61 59 54 53 51 48 44 43 49 51 54 54
Wind_Direction_850mb
345 346 346 346 345 344 342 339 330 320 313 294 280 287 287 290 273 259 258 249 257 245
340 340 340 340 340 340 340 338 336 326 316 309 288 279 284 285 286 277 268 265 256 250
338 337 336 335 335 335 335 336 334 333 323 313 307 285 274 280 283 284 279 268 260 261
337 335 334 333 332 331 331 332 333 333 329 320 310 302 285 277 276 281 280 274 267 263
334 332 331 330 329 328 326 327 327 329 331 324 316 309 296 280 273 271 276 273 267 264
330 330 330 330 330 329 324 322 323 325 326 329 319 313 305 288 276 269 267 273 269 265
327 327 326 327 327 327 326 321 320 320 321 327 320 314 308 299 284 273 265 268 267 264
323 323 321 322 325 325 325 322 319 319 320 322 324 316 310 302 290 278 270 266 263 262
321 321 319 320 321 322 323 323 319 319 321 318 325 318 310 300 288 279 272 265 265 263
320 319 318 319 320 320 322 321 320 321 321 319 323 322 310 300 291 280 271 263 261 257
319 317 318 320 319 319 321 321 320 320 322 321 321 325 312 301 291 281 269 261 257 254
317 316 318 320 320 319 320 320 320 321 321 322 320 327 316 303 296 292 281 267 252 244
314 313 316 318 320 319 319 320 321 317 319 320 320 331 322 303 295 283 274 269 254 244
311 312 315 317 321 319 321 320 320 319 316 319 321 327 331 311 293 281 268 260 247 237